NOAA 16 DEB, 41504

Orbit data source: Space-Track

NOAA 16 DEB, 41504 is space debris in SSO originally from a launch on Thu, 21 Sep 2000 UTC launched from the Air Force Western Test Range (AFWTR). Debris objects in space refer to the collection of defunct objects orbiting the Earth. Examples of debris include non-operational satellites, rocket bodies, and fragments generated from explosions, collisions, or faulty payload assembly.

Loading next visibility...
Identifier
41504, 2000-055MC
Orbit
SSO
Country
Flag of USUS
Related business
Manufacturer
Unknown
Mission
Spacecraft
Bus & Motor
Unknown
Mass
Unknown
Launch date (UTC)
2000-09-21 (25 years ago)
Launch vehicle
Unknown
Launch site
Air Force Western Test Range (AFWTR)
Object type
Payload
Rocket body
Debris
Shape & HBR
Unknown shape, 0.1 m
Radar Cross Section
Small (<0.1 m²)

Expand to show TLE details & history
Last TLE update: 23 hours ago

TLE from 23 hours ago
0 NOAA 16 DEB
1 41504U 00055MC  25293.00896395  .00009120  00000-0  39107-2 0  9999
2 41504  98.7738   0.2322 0030256 104.6886 255.7650 14.24754935497268
Epoch: 2025-10-20T00:12Z
TLE epoch observation values (Epoch: 2025-10-20T00:12:54.485Z)
Latitude
Longitude
-31.71226°
Altitude
817.646 km
Speed
7.442 km/s
True Right ascension
00h 00m 55s
True Declination
0° 00' 00"
Sunlit
Object was in full shadow at epoch
Visualization orbit readout
Latitude
Unknown
Longitude
Unknown
Altitude
Unknown
Speed
Unknown
Apparent Right ascension
Unknown
Apparent Declination
Unknown
Sunlit
N/A
Visualization observer readout
Local Sidereal Time
18:05:33
Azimuth
Unknown
Elevation
Unknown
Doppler factor
Unknown
Orbital elements
Apogee altitude
828.21 km
Perigee altitude
784.734 km
Semi-major axis
7,184.609 km
Eccentricity
0.00303
Inclination
98.7738°
RAAN
0.2322°
Arg. of periapsis
104.6886°
True anomaly
255.42925°
Mean anomaly
255.765°
Eccentric anomaly
255.59709°
Mean motion
3.56401 °/min
Orbital period
101.01 mins
BSTAR
0.0039107
Loading maneuver chart data...
Computing Atmospheric mass density...

Documentation

Showing up to 5 results
|